Weather History for Northolt, United Kingdom

Change the Weather History Date:

Thursday, December 27, 2012

  Actual Average Record
Temperature  
Mean Temperature 44 °F -  
Max Temperature 46 °F 44 °F 55 °F (2007)
Min Temperature 41 °F 35 °F 24 °F (2004)
Degree Days  
Heating Degree Days 21    
Moisture  
Dew Point 39 °F    
Average Humidity 79    
Maximum Humidity 93    
Minimum Humidity 66    
Precipitation  
Precipitation 0.08 in - - ()
Sea Level Pressure  
Sea Level Pressure 29.71 in    
Wind  
Wind Speed 10 mph ()    
Max Wind Speed 20 mph    
Max Gust Speed -    
Visibility 7.4 miles    
Events Rain    
Averages and records for this station are not official NWS values.
T = Trace of Precipitation, MM = Missing Value Source: Averaged Metar Reports

Daily Weather History Graph

Daily Weather History Graph

Search for Another Location

Airport:

Trip Planner

Search our weather history database for the weather conditions in past years. The results will help you decide how hot, cold, wet, or windy it might be!

Date:

Astronomy

Dec. 27, 2012 Rise Set
Actual Time 8:07 AM GMT 3:58 PM GMT
Civil Twilight 7:27 AM GMT 4:38 PM GMT
Nautical Twilight 6:43 AM GMT 5:22 PM GMT
Astronomical Twilight 6:03 AM GMT 6:02 PM GMT
Moon 3:33 PM GMT (12/27) 7:03 AM GMT (12/27)
Length of Visible Light 9h 11m
Length of Day
7h 51m
Waxing Gibbous, 99% of the Moon is Illuminated
Dec 27
Waxing Gibbous
Dec 28
Full
Jan 5
Last Quarter
Jan 11
New
Jan 18
First Quarter

Hourly Weather History & Observations

Time (GMT) Temp. Windchill Dew Point Humidity Pressure Visibility Wind Dir Wind Speed Gust Speed Precip Events Conditions
12:50 AM 46.4 °F 39.5 °F 39.2 °F 76% 29.59 in 6.2 mi WSW 17.3 mph - N/A   Partly Cloudy
1:50 AM 46.4 °F 40.4 °F 39.2 °F 76% 29.59 in 6.2 mi SW 13.8 mph - N/A   Unknown
2:50 AM 46 °F - 39 °F 67% 29.60 in 17 mi WSW 12.7 mph - -   Partly Cloudy
2:50 AM 46.4 °F 40.7 °F 39.2 °F 76% 29.59 in 6.2 mi WSW 12.7 mph - N/A   Scattered Clouds
3:50 AM 44.6 °F 41.4 °F 37.4 °F 76% 29.56 in 6.2 mi SSW 5.8 mph - N/A   Unknown
4:50 AM 42.8 °F 38.0 °F 37.4 °F 81% 29.56 in 6.2 mi SW 8.1 mph - N/A   Partly Cloudy
5:50 AM 43 °F - 38 °F 77% 29.54 in 16 mi SW 8.1 mph - -   Scattered Clouds
5:50 AM 42.8 °F 38.0 °F 39.2 °F 87% 29.53 in 6.2 mi SW 8.1 mph - N/A   Scattered Clouds
6:50 AM 44.6 °F 39.2 °F 39.2 °F 81% 29.50 in 6.2 mi SSW 10.4 mph - N/A   Mostly Cloudy
7:50 AM 44.6 °F 40.2 °F 41.0 °F 87% 29.47 in 5.6 mi South 8.1 mph - N/A Rain Rain
8:50 AM 45 °F - 42 °F 87% 29.45 in 6 mi SSW 3.5 mph - - Rain Light Rain
8:50 AM 44.6 °F 43.1 °F 42.8 °F 93% 29.44 in 6.2 mi SSW 3.5 mph - N/A Rain Light Rain
9:50 AM 46.4 °F 41.1 °F 42.8 °F 87% 29.44 in 6.2 mi WSW 11.5 mph - N/A Rain Light Rain
10:50 AM 44.6 °F 38.1 °F 41.0 °F 87% 29.47 in 5.0 mi WSW 13.8 mph - N/A Rain Light Rain
11:50 AM 46 °F - 42 °F 80% 29.49 in 9 mi West 11.5 mph - - Rain Light Rain
11:50 AM 46.4 °F 41.1 °F 42.8 °F 87% 29.47 in 6.2 mi West 11.5 mph - N/A   Mostly Cloudy
12:50 PM 44.6 °F 37.4 °F 39.2 °F 81% 29.53 in 6.2 mi WNW 16.1 mph - N/A Rain Light Rain
1:50 PM 44.6 °F 36.6 °F 39.2 °F 81% 29.62 in 6.2 mi NNW 19.6 mph - N/A   Mostly Cloudy
2:50 PM 45 °F - 38 °F 68% 29.73 in 25 mi NW 15.0 mph - -   Partly Cloudy
2:50 PM 44.6 °F 37.8 °F 37.4 °F 76% 29.71 in 6.2 mi NW 15.0 mph - N/A   Mostly Cloudy
3:50 PM 44.6 °F 38.4 °F 37.4 °F 76% 29.77 in 6.2 mi WNW 12.7 mph - N/A   Mostly Cloudy
4:50 PM 44.6 °F 38.8 °F 37.4 °F 76% 29.83 in 6.2 mi West 11.5 mph - N/A   Mostly Cloudy
5:50 PM 45 °F - 37 °F 66% 29.89 in 25 mi WNW 15.0 mph - -   Partly Cloudy
5:50 PM 44.6 °F 37.8 °F 37.4 °F 76% 29.86 in 6.2 mi WNW 15.0 mph - N/A   Scattered Clouds
6:50 PM 44.6 °F 38.4 °F 37.4 °F 76% 29.92 in 6.2 mi NW 12.7 mph - N/A   Partly Cloudy
7:50 PM 44.6 °F 38.8 °F 37.4 °F 76% 30.01 in 6.2 mi WNW 11.5 mph - N/A   Scattered Clouds
8:50 PM 44 °F - 38 °F 71% 30.05 in 25 mi WNW 8.1 mph - -   Mostly Cloudy
8:50 PM 44.6 °F 40.2 °F 37.4 °F 76% 30.04 in 6.2 mi WNW 8.1 mph - N/A   Mostly Cloudy
9:50 PM 44.6 °F 42.2 °F 37.4 °F 76% 30.09 in 6.2 mi NW 4.6 mph - N/A   Overcast
10:50 PM 42.8 °F 41.1 °F 39.2 °F 87% 30.09 in 6.2 mi West 3.5 mph - N/A   Overcast
11:50 PM 42 °F - 38 °F 79% 30.15 in 19 mi WSW 3.5 mph - -   Mostly Cloudy
11:50 PM 41.0 °F 39.0 °F 37.4 °F 87% 30.12 in 6.2 mi WSW 3.5 mph - N/A   Mostly Cloudy